| time (UTC) | temp F | wind direction | speed knots | gust knots | rain 1hr in | rain 24hr in | rain mn in | humidity % | barometer mb |
| 20260505153039 | 50 | 347 | 1.7 | 7.8 | 0.00 | 0.41 | 0.01 | 95 | 1010.3 |
| 20260505152515 | 50 | 56 | 0.0 | 7.8 | 0.00 | 0.41 | 0.01 | 95 | 1010.3 |
| 20260505152020 | 50 | 56 | 1.7 | 7.8 | 0.00 | 0.41 | 0.01 | 95 | 1010.3 |
| 20260505151530 | 50 | 19 | 1.7 | 7.0 | 0.00 | 0.41 | 0.01 | 95 | 1010.2 |
| 20260505151016 | 50 | 58 | 0.9 | 8.7 | 0.00 | 0.41 | 0.01 | 95 | 1010.3 |
| 20260505150515 | 50 | 0 | 2.6 | 8.7 | 0.00 | 0.41 | 0.01 | 95 | 1010.3 |
| 20260505140515 | 50 | 0 | 0.0 | 7.0 | 0.00 | 0.41 | 0.01 | 95 | 1010.8 |
| 20260505125014 | 50 | 69 | 0.9 | 9.6 | 0.00 | 0.41 | 0.01 | 95 | 1011.0 |
| 20260505124529 | 50 | 0 | 2.6 | 9.6 | 0.00 | 0.41 | 0.01 | 96 | 1011.0 |
| 20260505124016 | 50 | 60 | 1.7 | 8.7 | 0.00 | 0.41 | 0.01 | 96 | 1011.1 |
| 20260505123513 | 50 | 0 | 0.9 | 7.0 | 0.00 | 0.41 | 0.01 | 95 | 1011.1 |
| 20260505123035 | 50 | 2 | 0.9 | 7.0 | 0.00 | 0.41 | 0.01 | 96 | 1011.1 |
| 20260505122516 | 50 | 54 | 1.7 | 7.0 | 0.00 | 0.41 | 0.01 | 96 | 1011.2 |
| 20260505122014 | 50 | 80 | 2.6 | 8.7 | 0.00 | 0.41 | 0.01 | 95 | 1011.2 |
| 20260505121532 | 50 | 0 | 1.7 | 8.7 | 0.00 | 0.41 | 0.01 | 95 | 1011.2 |
| 20260505121016 | 50 | 0 | 3.5 | 8.7 | 0.00 | 0.41 | 0.01 | 95 | 1011.2 |
| 20260505120516 | 50 | 69 | 1.7 | 7.0 | 0.00 | 0.41 | 0.01 | 95 | 1011.1 |
| 20260505120043 | 50 | 62 | 0.0 | 7.0 | 0.00 | 0.41 | 0.01 | 95 | 1011.2 |
| 20260505115517 | 50 | 0 | 1.7 | 7.0 | 0.00 | 0.43 | 0.01 | 95 | 1011.3 |
| 20260505115016 | 50 | 35 | 1.7 | 7.8 | 0.00 | 0.43 | 0.01 | 95 | 1011.3 |
| 20260505114531 | 50 | 66 | 0.0 | 7.8 | 0.00 | 0.43 | 0.01 | 95 | 1011.3 |
| 20260505114016 | 50 | 56 | 2.6 | 7.0 | 0.00 | 0.43 | 0.01 | 95 | 1011.3 |
| 20260505113513 | 50 | 0 | 0.0 | 7.0 | 0.01 | 0.43 | 0.01 | 95 | 1011.4 |
| 20260505113029 | 50 | 37 | 1.7 | 7.0 | 0.01 | 0.43 | 0.01 | 96 | 1011.4 |
| 20260505112517 | 50 | 351 | 0.9 | 4.3 | 0.01 | 0.43 | 0.01 | 96 | 1011.4 |
| 20260505112015 | 50 | 0 | 0.0 | 4.3 | 0.01 | 0.43 | 0.01 | 96 | 1011.4 |
| 20260505111532 | 50 | 344 | 0.9 | 7.8 | 0.01 | 0.43 | 0.01 | 96 | 1011.4 |
| 20260505111015 | 50 | 0 | 0.0 | 7.8 | 0.01 | 0.43 | 0.01 | 96 | 1011.5 |
| 20260505110518 | 50 | 60 | 2.6 | 8.7 | 0.01 | 0.43 | 0.01 | 95 | 1011.5 |
| 20260505102016 | 50 | 0 | 0.9 | 8.7 | 0.00 | 0.42 | 0.00 | 95 | 1011.6 |
| 20260505101534 | 50 | 31 | 1.7 | 8.7 | 0.00 | 0.42 | 0.00 | 95 | 1011.6 |
| 20260505101015 | 50 | 58 | 0.0 | 7.8 | 0.00 | 0.42 | 0.00 | 95 | 1011.6 |
| 20260505100516 | 50 | 56 | 0.9 | 7.8 | 0.00 | 0.42 | 0.00 | 95 | 1011.6 |
| 20260505100032 | 50 | 52 | 3.5 | 7.8 | 0.00 | 0.42 | 0.00 | 95 | 1011.5 |
| 20260505095513 | 50 | 36 | 1.7 | 7.8 | 0.00 | 0.42 | 0.00 | 95 | 1011.5 |
| 20260505095016 | 50 | 70 | 1.7 | 7.8 | 0.00 | 0.42 | 0.00 | 95 | 1011.5 |
| 20260505094531 | 50 | 0 | 1.7 | 7.0 | 0.00 | 0.42 | 0.00 | 95 | 1011.5 |
| 20260505094015 | 50 | 49 | 0.9 | 8.7 | 0.00 | 0.42 | 0.00 | 95 | 1011.5 |
| 20260505093515 | 50 | 0 | 0.0 | 8.7 | 0.00 | 0.42 | 0.00 | 95 | 1011.5 |
| 20260505093031 | 50 | 62 | 1.7 | 8.7 | 0.00 | 0.42 | 0.00 | 95 | 1011.6 |
| 20260505092513 | 50 | 0 | 0.9 | 6.1 | 0.00 | 0.42 | 0.00 | 95 | 1011.6 |
| 20260505092016 | 50 | 0 | 0.9 | 7.8 | 0.00 | 0.42 | 0.00 | 95 | 1011.6 |
| 20260505091532 | 50 | 28 | 2.6 | 9.6 | 0.00 | 0.42 | 0.00 | 95 | 1011.7 |
| 20260505091015 | 50 | 26 | 3.5 | 9.6 | 0.00 | 0.42 | 0.00 | 95 | 1011.7 |
| 20260505090516 | 50 | 52 | 2.6 | 7.8 | 0.00 | 0.42 | 0.00 | 95 | 1011.6 |
| 20260505090030 | 50 | 71 | 3.5 | 7.8 | 0.00 | 0.42 | 0.00 | 95 | 1011.7 |
| 20260505085514 | 50 | 0 | 0.0 | 7.8 | 0.00 | 0.42 | 0.00 | 95 | 1011.8 |
| 20260505085017 | 50 | 62 | 0.9 | 7.0 | 0.00 | 0.42 | 0.00 | 95 | 1011.6 |
| 20260505084544 | 50 | 328 | 0.9 | 10.4 | 0.00 | 0.42 | 0.00 | 95 | 1011.6 |
| 20260505084016 | 50 | 308 | 1.7 | 10.4 | 0.00 | 0.42 | 0.00 | 95 | 1011.6 |
| 20260505083518 | 50 | 322 | 0.9 | 6.1 | 0.00 | 0.42 | 0.00 | 95 | 1011.7 |
| 20260505083046 | 50 | 0 | 0.0 | 6.1 | 0.00 | 0.42 | 0.00 | 95 | 1011.6 |
| 20260505082513 | 51 | 340 | 1.7 | 6.1 | 0.00 | 0.42 | 0.00 | 95 | 1011.6 |
| 20260505082016 | 51 | 341 | 0.9 | 5.2 | 0.00 | 0.42 | 0.00 | 95 | 1011.8 |
| 20260505081541 | 51 | 0 | 1.7 | 5.2 | 0.00 | 0.42 | 0.00 | 95 | 1011.8 |
| 20260505081015 | 51 | 0 | 0.0 | 6.1 | 0.00 | 0.42 | 0.00 | 95 | 1011.8 |
| 20260505080517 | 51 | 0 | 0.0 | 9.6 | 0.00 | 0.42 | 0.00 | 95 | 1011.7 |
| 20260505080042 | 51 | 55 | 1.7 | 9.6 | 0.00 | 0.42 | 0.00 | 95 | 1011.6 |
| 20260505075518 | 51 | 75 | 2.6 | 9.6 | 0.00 | 0.42 | 0.00 | 95 | 1011.7 |
| 20260505075016 | 51 | 74 | 0.9 | 7.0 | 0.00 | 0.42 | 0.00 | 95 | 1011.7 |
| 20260505074531 | 51 | 0 | 1.7 | 7.0 | 0.00 | 0.42 | 0.00 | 95 | 1011.7 |
| 20260505074017 | 51 | 345 | 0.9 | 7.0 | 0.00 | 0.42 | 0.00 | 95 | 1011.7 |
| 20260505073518 | 51 | 13 | 0.0 | 3.5 | 0.00 | 0.42 | 0.00 | 95 | 1011.7 |
| 20260505073045 | 51 | 68 | 0.9 | 7.0 | 0.00 | 0.42 | 0.00 | 95 | 1011.8 |
| 20260505072515 | 51 | 0 | 0.0 | 7.0 | 0.00 | 0.42 | 0.00 | 95 | 1011.6 |
| 20260505072014 | 51 | 0 | 0.9 | 6.1 | 0.00 | 0.42 | 0.00 | 95 | 1011.7 |
| 20260505071544 | 51 | 0 | 1.7 | 7.0 | 0.00 | 0.42 | 0.00 | 95 | 1011.7 |
| 20260505071016 | 51 | 52 | 0.9 | 7.0 | 0.00 | 0.42 | 0.00 | 95 | 1011.7 |
| 20260505070518 | 51 | 351 | 1.7 | 7.0 | 0.00 | 0.42 | 0.00 | 95 | 1011.6 |
| 20260505070042 | 51 | 341 | 2.6 | 7.0 | 0.00 | 0.42 | 0.00 | 95 | 1011.6 |
| 20260505065517 | 51 | 0 | 0.0 | 7.8 | 0.00 | 0.42 | 0.00 | 95 | 1011.6 |
| 20260505065014 | 51 | 0 | 0.0 | 9.6 | 0.00 | 0.42 | 0.00 | 95 | 1011.7 |
| 20260505064535 | 51 | 343 | 2.6 | 10.4 | 0.00 | 0.42 | 0.00 | 95 | 1011.7 |
| 20260505064014 | 51 | 0 | 1.7 | 10.4 | 0.00 | 0.42 | 0.00 | 95 | 1011.7 |
| 20260505063516 | 51 | 322 | 3.5 | 9.6 | 0.00 | 0.42 | 0.00 | 95 | 1011.7 |
| 20260505063040 | 51 | 49 | 1.7 | 9.6 | 0.00 | 0.42 | 0.00 | 95 | 1011.7 |
| 20260505062517 | 51 | 310 | 1.7 | 8.7 | 0.00 | 0.42 | 0.00 | 95 | 1011.7 |
| 20260505062016 | 52 | 0 | 0.9 | 5.2 | 0.00 | 0.42 | 0.00 | 95 | 1011.7 |
| 20260505061532 | 52 | 61 | 0.0 | 5.2 | 0.00 | 0.42 | 0.00 | 95 | 1011.7 |
| 20260505061014 | 52 | 64 | 0.0 | 5.2 | 0.00 | 0.42 | 0.00 | 95 | 1011.9 |
| 20260505060514 | 52 | 347 | 0.9 | 5.2 | 0.00 | 0.42 | 0.00 | 95 | 1011.9 |
| 20260505060053 | 52 | 0 | 0.9 | 5.2 | 0.00 | 0.42 | 0.00 | 95 | 1011.8 |
| 20260505055516 | 52 | 358 | 0.9 | 5.2 | 0.00 | 0.42 | 0.00 | 95 | 1011.9 |
| 20260505055014 | 52 | 332 | 0.9 | 7.0 | 0.00 | 0.42 | 0.00 | 95 | 1011.9 |
| 20260505054533 | 52 | 0 | 0.0 | 7.0 | 0.00 | 0.42 | 0.00 | 95 | 1011.9 |
| 20260505054020 | 52 | 326 | 2.6 | 7.0 | 0.00 | 0.42 | 0.00 | 95 | 1011.9 |
| 20260505053515 | 52 | 12 | 1.7 | 6.1 | 0.00 | 0.42 | 0.00 | 95 | 1011.9 |
| 20260505053037 | 52 | 336 | 1.7 | 7.0 | 0.00 | 0.42 | 0.00 | 95 | 1011.8 |
| 20260505052515 | 52 | 49 | 0.9 | 7.0 | 0.00 | 0.42 | 0.00 | 95 | 1011.8 |
| 20260505052016 | 52 | 0 | 0.9 | 6.1 | 0.00 | 0.42 | 0.00 | 95 | 1011.8 |
| 20260505051532 | 52 | 321 | 0.9 | 6.1 | 0.00 | 0.42 | 0.00 | 95 | 1011.7 |
| 20260505051013 | 52 | 333 | 1.7 | 6.1 | 0.00 | 0.42 | 0.00 | 95 | 1011.8 |
| 20260505050514 | 52 | 0 | 1.7 | 7.0 | 0.00 | 0.42 | 0.00 | 95 | 1011.7 |
| 20260505041536 | 53 | 0 | 2.6 | 7.0 | 0.00 | 0.42 | 0.00 | 95 | 1011.8 |
| 20260505041015 | 53 | 345 | 2.6 | 7.0 | 0.00 | 0.42 | 0.00 | 95 | 1011.8 |
| 20260505040517 | 53 | 0 | 1.7 | 4.3 | 0.00 | 0.42 | 0.00 | 95 | 1011.9 |
| 20260505040034 | 53 | 2 | 0.9 | 3.5 | 0.00 | 0.42 | 0.00 | 95 | 1011.9 |
| 20260505035513 | 53 | 0 | 0.0 | 7.0 | 0.00 | 0.42 | 0.00 | 95 | 1011.9 |
| 20260505035015 | 53 | 345 | 0.0 | 7.0 | 0.00 | 0.42 | 0.00 | 95 | 1011.9 |
| 20260505034529 | 53 | 314 | 0.9 | 7.0 | 0.00 | 0.42 | 0.00 | 95 | 1012.0 |
| 20260505034017 | 53 | 0 | 0.0 | 7.0 | 0.00 | 0.42 | 0.00 | 95 | 1012.1 |
| 20260505033516 | 53 | 347 | 1.7 | 7.0 | 0.00 | 0.42 | 0.00 | 95 | 1012.2 |
| 20260505033033 | 54 | 359 | 2.6 | 6.1 | 0.00 | 0.42 | 0.00 | 95 | 1012.0 |
| 20260505032514 | 54 | 0 | 0.0 | 5.2 | 0.00 | 0.42 | 0.00 | 95 | 1011.9 |
| 20260505032016 | 54 | 357 | 0.9 | 7.0 | 0.00 | 0.42 | 0.00 | 95 | 1011.9 |
| 20260505031530 | 54 | 0 | 0.0 | 7.0 | 0.00 | 0.42 | 0.00 | 95 | 1011.9 |
| 20260505031014 | 54 | 0 | 0.9 | 4.3 | 0.00 | 0.42 | 0.00 | 95 | 1012.0 |
| 20260505030515 | 54 | 0 | 0.0 | 4.3 | 0.00 | 0.42 | 0.00 | 95 | 1012.1 |
| 20260505030034 | 54 | 54 | 0.0 | 4.3 | 0.00 | 0.42 | 0.00 | 95 | 1012.1 |
| 20260505025518 | 54 | 0 | 0.0 | 2.6 | 0.00 | 0.42 | 0.00 | 95 | 1012.1 |
| 20260505025015 | 54 | 0 | 0.0 | 5.2 | 0.00 | 0.42 | 0.00 | 95 | 1012.1 |
| 20260505024532 | 54 | 327 | 0.0 | 5.2 | 0.00 | 0.42 | 0.00 | 95 | 1012.1 |
| 20260505024015 | 54 | 0 | 0.9 | 5.2 | 0.00 | 0.42 | 0.00 | 95 | 1012.1 |
| 20260505023515 | 54 | 333 | 0.0 | 2.6 | 0.00 | 0.42 | 0.00 | 95 | 1012.1 |
| 20260505023032 | 54 | 0 | 0.0 | 5.2 | 0.00 | 0.42 | 0.00 | 95 | 1012.1 |
| 20260505022514 | 54 | 0 | 0.9 | 7.8 | 0.00 | 0.42 | 0.00 | 94 | 1012.2 |
| 20260505022015 | 54 | 341 | 0.0 | 7.8 | 0.00 | 0.42 | 0.00 | 95 | 1012.2 |
| 20260505021530 | 54 | 340 | 0.0 | 4.3 | 0.00 | 0.42 | 0.00 | 95 | 1012.2 |
| 20260505021015 | 55 | 0 | 0.0 | 5.2 | 0.00 | 0.42 | 0.00 | 95 | 1012.3 |
| 20260505020513 | 55 | 0 | 0.9 | 5.2 | 0.00 | 0.42 | 0.00 | 95 | 1012.2 |
| 20260505020035 | 55 | 321 | 0.9 | 5.2 | 0.00 | 0.42 | 0.00 | 94 | 1012.2 |
| 20260505015514 | 55 | 0 | 0.9 | 5.2 | 0.00 | 0.42 | 0.00 | 94 | 1012.2 |
| 20260505015016 | 55 | 25 | 0.9 | 3.5 | 0.00 | 0.42 | 0.00 | 94 | 1012.2 |
| 20260505014538 | 55 | 0 | 0.0 | 1.7 | 0.00 | 0.42 | 0.00 | 94 | 1012.2 |
| 20260505014015 | 55 | 0 | 0.0 | 2.6 | 0.00 | 0.42 | 0.00 | 94 | 1012.1 |
| 20260505013516 | 55 | 0 | 0.0 | 2.6 | 0.00 | 0.42 | 0.00 | 94 | 1012.0 |
| 20260505013037 | 55 | 0 | 0.0 | 2.6 | 0.00 | 0.42 | 0.00 | 94 | 1012.1 |
| 20260505012518 | 55 | 0 | 0.0 | 2.6 | 0.00 | 0.42 | 0.00 | 94 | 1012.2 |
| 20260505012016 | 55 | 0 | 0.0 | 2.6 | 0.00 | 0.42 | 0.00 | 94 | 1012.2 |
| 20260505011538 | 55 | 0 | 0.0 | 1.7 | 0.00 | 0.42 | 0.00 | 94 | 1012.2 |
| 20260505011015 | 55 | 0 | 0.0 | 1.7 | 0.00 | 0.42 | 0.00 | 94 | 1012.2 |
| 20260505010516 | 55 | 0 | 0.0 | 1.7 | 0.00 | 0.42 | 0.00 | 94 | 1012.2 |
| 20260505010030 | 55 | 0 | 0.0 | 3.5 | 0.00 | 0.42 | 0.00 | 94 | 1012.4 |
| 20260505005514 | 55 | 0 | 0.0 | 3.5 | 0.00 | 0.42 | 0.00 | 94 | 1012.5 |
| 20260505005015 | 55 | 0 | 0.0 | 2.6 | 0.00 | 0.42 | 0.00 | 94 | 1012.4 |
| 20260505004540 | 55 | 318 | 0.0 | 1.7 | 0.00 | 0.42 | 0.00 | 94 | 1012.4 |
| 20260505004015 | 55 | 318 | 0.0 | 2.6 | 0.00 | 0.42 | 0.00 | 94 | 1012.4 |
| 20260505003513 | 55 | 0 | 0.0 | 2.6 | 0.00 | 0.42 | 0.00 | 94 | 1012.5 |
| 20260505003050 | 55 | 316 | 0.0 | 2.6 | 0.00 | 0.42 | 0.00 | 94 | 1012.7 |
| 20260505002515 | 55 | 316 | 0.0 | 6.1 | 0.00 | 0.42 | 0.00 | 94 | 1012.7 |
| 20260505002015 | 55 | 0 | 0.0 | 6.1 | 0.00 | 0.42 | 0.00 | 94 | 1012.8 |
| 20260505001530 | 55 | 306 | 0.0 | 4.3 | 0.00 | 0.42 | 0.00 | 94 | 1012.7 |
| 20260505001018 | 55 | 328 | 0.9 | 3.5 | 0.00 | 0.42 | 0.00 | 94 | 1012.8 |
| 20260505000514 | 55 | 0 | 0.0 | 4.3 | 0.00 | 0.42 | 0.00 | 94 | 1012.8 |
| 20260505000034 | 55 | 0 | 0.0 | 4.3 | 0.00 | 0.42 | 0.00 | 94 | 1012.8 |
| 20260504235513 | 55 | 333 | 0.9 | 5.2 | 0.00 | 0.42 | 0.00 | 94 | 1012.9 |
| 20260504235015 | 55 | 330 | 1.7 | 5.2 | 0.00 | 0.42 | 0.00 | 94 | 1012.7 |
| 20260504234530 | 55 | 0 | 0.0 | 5.2 | 0.00 | 0.42 | 0.00 | 94 | 1012.8 |
| 20260504234019 | 55 | 0 | 0.0 | 5.2 | 0.00 | 0.42 | 0.00 | 94 | 1012.8 |
| 20260504233513 | 55 | 304 | 1.7 | 5.2 | 0.00 | 0.42 | 0.00 | 94 | 1012.9 |
| 20260504233029 | 55 | 0 | 0.0 | 0.0 | 0.00 | 0.42 | 0.00 | 94 | 1012.9 |
| 20260504232518 | 55 | 0 | 0.0 | 0.0 | 0.00 | 0.42 | 0.00 | 94 | 1013.0 |
| 20260504232015 | 55 | 0 | 0.0 | 0.9 | 0.00 | 0.42 | 0.00 | 94 | 1012.9 |
| 20260504231529 | 55 | 0 | 0.0 | 0.9 | 0.00 | 0.42 | 0.00 | 94 | 1012.9 |
| 20260504231014 | 55 | 0 | 0.0 | 0.0 | 0.00 | 0.42 | 0.00 | 94 | 1013.0 |
| 20260504230518 | 55 | 0 | 0.0 | 0.0 | 0.00 | 0.42 | 0.00 | 94 | 1013.0 |
| 20260504230027 | 55 | 0 | 0.0 | 0.0 | 0.00 | 0.42 | 0.00 | 94 | 1013.2 |
| 20260504225516 | 55 | 0 | 0.0 | 0.0 | 0.00 | 0.44 | 0.00 | 94 | 1013.3 |
| 20260504225016 | 55 | 0 | 0.0 | 0.0 | 0.00 | 0.44 | 0.00 | 94 | 1013.3 |
| 20260504224532 | 55 | 0 | 0.0 | 0.0 | 0.00 | 0.44 | 0.00 | 94 | 1013.3 |
| 20260504224014 | 55 | 0 | 0.0 | 0.0 | 0.00 | 0.44 | 0.00 | 94 | 1013.3 |
| 20260504223515 | 55 | 0 | 0.0 | 0.0 | 0.00 | 0.44 | 0.00 | 93 | 1013.4 |
| 20260504223037 | 55 | 0 | 0.0 | 0.0 | 0.00 | 0.44 | 0.00 | 94 | 1013.4 |
| 20260504222520 | 55 | 0 | 0.0 | 0.0 | 0.00 | 0.44 | 0.00 | 93 | 1013.3 |
| 20260504222015 | 55 | 0 | 0.0 | 0.9 | 0.00 | 0.44 | 0.00 | 93 | 1013.4 |
| 20260504221530 | 55 | 0 | 0.0 | 0.9 | 0.00 | 0.44 | 0.00 | 93 | 1013.6 |
| 20260504221014 | 55 | 0 | 0.0 | 0.0 | 0.00 | 0.44 | 0.00 | 93 | 1013.7 |
| 20260504220515 | 55 | 0 | 0.0 | 0.9 | 0.00 | 0.44 | 0.00 | 93 | 1013.8 |
| 20260504220033 | 55 | 0 | 0.0 | 0.9 | 0.00 | 0.44 | 0.00 | 93 | 1013.8 |
| 20260504215514 | 55 | 0 | 0.0 | 0.9 | 0.00 | 0.46 | 0.44 | 93 | 1013.8 |
| 20260504215019 | 55 | 0 | 0.0 | 0.0 | 0.00 | 0.46 | 0.44 | 93 | 1013.8 |
| 20260504214531 | 55 | 0 | 0.0 | 0.0 | 0.00 | 0.46 | 0.44 | 93 | 1013.9 |
| 20260504214018 | 55 | 0 | 0.0 | 0.0 | 0.00 | 0.46 | 0.44 | 93 | 1013.9 |
| 20260504213515 | 55 | 0 | 0.0 | 0.9 | 0.00 | 0.46 | 0.44 | 93 | 1013.9 |
| 20260504213031 | 55 | 0 | 0.0 | 0.9 | 0.00 | 0.46 | 0.44 | 93 | 1013.9 |
| 20260504212513 | 55 | 0 | 0.0 | 0.9 | 0.00 | 0.46 | 0.44 | 93 | 1014.0 |
| 20260504212015 | 55 | 0 | 0.0 | 0.0 | 0.00 | 0.46 | 0.44 | 93 | 1013.9 |
| 20260504211536 | 55 | 0 | 0.0 | 0.0 | 0.00 | 0.46 | 0.44 | 93 | 1013.9 |
| 20260504211015 | 55 | 0 | 0.0 | 0.0 | 0.00 | 0.46 | 0.44 | 93 | 1013.9 |
| 20260504210515 | 55 | 0 | 0.0 | 0.0 | 0.00 | 0.46 | 0.44 | 92 | 1014.0 |
| 20260504210029 | 55 | 0 | 0.0 | 0.0 | 0.00 | 0.46 | 0.44 | 92 | 1014.0 |
| 20260504205512 | 55 | 0 | 0.0 | 0.0 | 0.00 | 0.46 | 0.44 | 92 | 1014.0 |
| 20260504205014 | 55 | 0 | 0.0 | 0.0 | 0.00 | 0.46 | 0.44 | 92 | 1014.1 |
| 20260504204532 | 55 | 0 | 0.0 | 0.0 | 0.00 | 0.46 | 0.44 | 92 | 1014.1 |
| 20260504204015 | 55 | 0 | 0.0 | 0.0 | 0.00 | 0.46 | 0.44 | 92 | 1014.1 |
| 20260504203514 | 55 | 0 | 0.0 | 0.0 | 0.00 | 0.46 | 0.44 | 92 | 1014.1 |
| 20260504203029 | 55 | 0 | 0.0 | 0.0 | 0.00 | 0.46 | 0.44 | 92 | 1014.2 |
| 20260504202516 | 55 | 0 | 0.0 | 0.0 | 0.00 | 0.46 | 0.44 | 92 | 1014.1 |
| 20260504202016 | 55 | 0 | 0.0 | 0.0 | 0.00 | 0.46 | 0.44 | 92 | 1014.2 |
| 20260504201531 | 55 | 0 | 0.0 | 0.0 | 0.00 | 0.46 | 0.44 | 92 | 1014.3 |
| 20260504201013 | 55 | 0 | 0.0 | 0.0 | 0.00 | 0.46 | 0.44 | 92 | 1014.2 |
| 20260504200515 | 55 | 0 | 0.0 | 0.0 | 0.00 | 0.46 | 0.44 | 92 | 1014.2 |
| 20260504200029 | 55 | 0 | 0.0 | 0.0 | 0.00 | 0.46 | 0.44 | 92 | 1014.2 |
| 20260504195518 | 56 | 0 | 0.0 | 0.0 | 0.00 | 0.46 | 0.44 | 92 | 1014.1 |
| 20260504195014 | 55 | 0 | 0.0 | 0.0 | 0.01 | 0.46 | 0.44 | 92 | 1014.0 |
| 20260504194528 | 55 | 0 | 0.0 | 0.0 | 0.02 | 0.46 | 0.44 | 92 | 1013.9 |
| 20260504194014 | 56 | 0 | 0.0 | 0.0 | 0.04 | 0.46 | 0.44 | 92 | 1013.9 |
| 20260504193516 | 56 | 0 | 0.0 | 0.0 | 0.06 | 0.46 | 0.44 | 92 | 1013.8 |
| 20260504193030 | 56 | 0 | 0.0 | 0.0 | 0.07 | 0.46 | 0.44 | 92 | 1013.8 |
| 20260504192515 | 56 | 0 | 0.0 | 0.0 | 0.07 | 0.46 | 0.44 | 92 | 1013.7 |
| 20260504192014 | 56 | 0 | 0.0 | 0.0 | 0.07 | 0.46 | 0.44 | 92 | 1013.6 |
| 20260504191529 | 56 | 0 | 0.0 | 0.0 | 0.07 | 0.46 | 0.44 | 92 | 1013.5 |
| 20260504191014 | 56 | 0 | 0.0 | 0.0 | 0.07 | 0.46 | 0.44 | 91 | 1013.5 |
| 20260504190513 | 56 | 0 | 0.0 | 0.0 | 0.08 | 0.46 | 0.44 | 91 | 1013.6 |
| 20260504190032 | 56 | 0 | 0.0 | 0.0 | 0.08 | 0.46 | 0.44 | 92 | 1013.6 |
| 20260504185515 | 56 | 0 | 0.0 | 0.0 | 0.08 | 0.50 | 0.44 | 92 | 1013.5 |
| 20260504185015 | 56 | 0 | 0.0 | 0.0 | 0.07 | 0.49 | 0.43 | 91 | 1013.6 |
| 20260504184543 | 56 | 0 | 0.0 | 0.0 | 0.06 | 0.48 | 0.42 | 91 | 1013.6 |
| 20260504184015 | 57 | 0 | 0.0 | 0.0 | 0.04 | 0.45 | 0.39 | 91 | 1013.7 |
| 20260504183514 | 57 | 0 | 0.0 | 0.0 | 0.04 | 0.44 | 0.38 | 91 | 1013.8 |
| 20260504183029 | 57 | 0 | 0.0 | 0.9 | 0.04 | 0.43 | 0.37 | 91 | 1013.8 |
| 20260504182513 | 57 | 0 | 0.0 | 0.9 | 0.05 | 0.43 | 0.37 | 91 | 1013.8 |
| 20260504182013 | 58 | 0 | 0.0 | 1.7 | 0.06 | 0.43 | 0.37 | 91 | 1013.9 |
| 20260504181531 | 58 | 0 | 0.0 | 1.7 | 0.07 | 0.43 | 0.37 | 91 | 1013.7 |
| 20260504181014 | 58 | 0 | 0.0 | 0.0 | 0.09 | 0.43 | 0.37 | 90 | 1013.7 |
| 20260504180517 | 58 | 0 | 0.0 | 0.0 | 0.10 | 0.42 | 0.36 | 90 | 1013.6 |
| 20260504180028 | 58 | 0 | 0.0 | 0.0 | 0.17 | 0.42 | 0.36 | 90 | 1013.5 |
| 20260504175516 | 58 | 0 | 0.0 | 0.0 | 0.22 | 0.64 | 0.36 | 90 | 1013.5 |
| 20260504175018 | 58 | 0 | 0.0 | 0.0 | 0.25 | 0.64 | 0.36 | 89 | 1013.6 |
| 20260504174529 | 58 | 0 | 0.0 | 0.0 | 0.29 | 0.63 | 0.35 | 89 | 1013.7 |
| 20260504174014 | 59 | 0 | 0.0 | 0.0 | 0.31 | 0.63 | 0.35 | 89 | 1013.7 |
| 20260504173514 | 59 | 0 | 0.0 | 0.0 | 0.30 | 0.62 | 0.34 | 89 | 1013.7 |
| 20260504173028 | 59 | 0 | 0.0 | 2.6 | 0.29 | 0.61 | 0.33 | 89 | 1013.7 |
| 20260504172514 | 59 | 0 | 0.0 | 4.3 | 0.28 | 0.60 | 0.32 | 89 | 1013.8 |
| 20260504172012 | 59 | 0 | 0.9 | 4.3 | 0.26 | 0.58 | 0.30 | 88 | 1013.8 |
| 20260504171529 | 60 | 0 | 0.0 | 2.6 | 0.26 | 0.58 | 0.30 | 87 | 1013.8 |
| 20260504171014 | 60 | 0 | 0.9 | 2.6 | 0.23 | 0.55 | 0.27 | 86 | 1013.7 |
| 20260504170513 | 61 | 0 | 0.0 | 5.2 | 0.21 | 0.52 | 0.25 | 85 | 1013.7 |